[[{"header":{"parameterUnit":"m.s-1","parameterCategory":1,"la1":30.2991,"la2":30.254,"lo1":-89.0895,"lo2":-89.0444,"dy":0.0017,"dx":0.0017,"nx":28,"ny":28,"refTime":"2025-07-19T09:00:00:Z","depth":0,"parameterNumber":2,"parameterNumberName":"U-component_of_WINDS"},"data":[0,0,0,0,0,0,0,0,0,0,0,0,0,0,0,0,0,0,0,0,0,0,0,0,0,0,0,0,0,0,0,0,0,0,0,0,0,0,0,0,0,0,0,0,0,0,0,0,0,0,0,0,0,0,0,0,0,0,1.6011,1.6011,0,1.6048,1.6048,1.6049,1.6026,1.6025,1.6023,1.6022,1.6058,1.606,1.6062,0,0,0,0,0,0,0,0,0,0,0,0,0,1.5916,1.5918,1.6011,1.6011,1.6012,1.6048,1.6048,1.6049,1.6026,1.6024,1.6023,1.6022,1.6058,1.606,1.6062,0,0,0,0,0,0,0,0,0,0,0,0,0,1.5955,1.5918,1.6011,1.6004,1.6004,1.6048,1.6048,1.6049,1.6026,1.6024,1.6023,1.6021,1.6057,1.606,1.6063,1.6113,0,0,1.6072,1.6073,0,0,0,0,0,0,0,0,1.5953,1.5959,1.6005,1.6005,1.6005,1.603,1.6028,1.6071,1.6026,1.6018,1.6022,1.602,1.605,1.6054,1.6064,1.6115,1.6117,1.6072,1.6074,1.6075,1.6076,0,0,0,0,0,0,0,1.595,1.5957,1.6025,1.6006,1.6006,1.5999,1.6002,1.6036,1.6043,1.6018,1.6017,1.6022,1.605,1.6061,1.6065,1.6117,1.6072,1.6074,1.6076,1.6077,1.6208,1.621,0,0,0,0,0,0,1.5949,1.5955,1.6024,1.6026,1.5975,1.6002,1.6006,1.6024,1.6042,1.6043,1.6023,1.602,1.6057,1.6061,1.6066,1.6124,1.6075,1.6078,1.6079,1.6207,1.6209,1.6211,0,0,0,0,0,0,1.5947,1.5955,1.6023,1.599,1.5998,1.6005,1.6025,1.6025,1.6037,1.6046,1.6046,1.6034,1.6056,1.6062,1.6101,1.6125,1.6079,1.6082,1.6205,1.6207,1.621,1.6243,0,0,0,0,0,0,1.5944,1.5954,1.5975,1.5991,1.6,1.6059,1.6027,1.6027,1.6042,1.6039,1.6056,1.6057,1.6055,1.6097,1.6104,1.6128,1.6084,1.6203,1.6206,1.6209,1.6239,1.6246,1.6252,0,0,0,0,0,1.5941,1.5983,1.5976,1.5984,1.6026,1.606,1.6065,1.6063,1.6044,1.6064,1.6069,1.6057,1.6122,1.6101,1.6109,1.6135,1.6201,1.6205,1.6209,1.6237,1.6245,1.6251,0,0,0,0,0,0,1.5969,1.5985,1.5977,1.6026,1.6042,1.6056,1.6081,1.6072,1.6092,1.6089,1.6084,1.6088,1.6129,1.6136,1.6113,1.6183,1.6158,1.6164,1.6177,1.6184,1.6191,1.6187,1.6086,0,0,0,0,0,1.5981,1.6008,1.602,1.6062,1.607,1.6074,1.6089,1.6086,1.6102,1.6108,1.6116,1.6131,1.6155,1.617,1.6193,1.6241,1.6243,1.6262,1.6268,1.6273,1.6277,1.63,1.6308,1.6223,1.6223,1.6223,0,0,1.6006,1.6018,1.6035,1.6068,1.608,1.6106,1.608,1.611,1.6129,1.6112,1.6149,1.6156,1.6172,1.6216,1.6235,1.6223,1.6301,1.6278,1.6282,1.6283,1.6305,1.6313,1.632,1.6226,1.6225,1.6225,0,0,1.6064,1.6077,1.6112,1.6124,1.6142,1.6144,1.6153,1.6168,1.6171,1.6209,1.6196,1.6218,1.626,1.6271,1.6282,1.6343,1.6331,1.6351,1.6382,1.6405,1.6411,1.6417,1.6436,1.6443,1.6356,1.6356,1.6356,0,1.6092,1.6133,1.6131,1.6161,1.6174,1.6161,1.6195,1.6207,1.6231,1.624,1.6226,1.6276,1.6287,1.6331,1.6346,1.6356,1.6364,1.6348,1.6411,1.6417,1.6422,1.644,1.6448,1.6358,1.6357,1.6357,1.6357,0,1.6165,1.6193,1.6219,1.6243,1.6259,1.6292,1.6293,1.631,1.6305,1.6308,1.6345,1.6357,1.638,1.6391,1.6386,1.6434,1.6425,1.6412,1.6386,1.6432,1.6449,1.6456,1.6361,1.636,1.6359,1.6359,0,0,1.6242,1.6263,1.6272,1.6281,1.63,1.6321,1.6352,1.6375,1.6388,1.6406,1.6429,1.6464,1.6451,1.6464,1.646,1.6481,1.6525,1.6464,1.6464,1.6472,1.6574,1.6583,1.6591,1.6518,1.6519,1.652,1.6572,0,1.6299,1.6353,1.6351,1.64,1.6425,1.6412,1.6438,1.6451,1.6455,1.6475,1.6479,1.6502,1.6484,1.6492,1.6511,1.6515,1.6544,1.6512,1.6538,1.6539,1.6532,1.66,1.661,1.6659,1.6579,1.658,1.6581,0,1.6373,1.6392,1.6444,1.6456,1.6466,1.649,1.651,1.6531,1.6545,1.6545,1.6559,1.6552,1.6581,1.6557,1.6595,1.6573,1.6583,1.6587,1.6589,1.6589,1.6561,1.66,1.6674,1.6681,1.6592,1.6591,1.659,0,1.642,1.6459,1.6494,1.6503,1.6519,1.6536,1.6543,1.6556,1.6569,1.6586,1.6594,1.6615,1.6626,1.6641,1.6639,1.6622,1.6677,1.6653,1.6677,1.6677,1.6688,1.6687,1.6762,1.6699,1.6699,1.6699,1.6698,0,1.6482,1.6514,1.6515,1.6537,1.6571,1.6568,1.6602,1.6607,1.6618,1.6639,1.663,1.665,1.6647,1.6667,1.6665,1.6696,1.6702,1.6702,1.67,1.6701,1.6701,1.6706,1.6702,1.67,1.67,1.67,1.6699,0,1.654,1.6543,1.658,1.6592,1.6596,1.662,1.663,1.6649,1.6652,1.6679,1.6685,1.6688,1.6711,1.6711,1.6736,1.6735,1.6772,1.6768,1.6767,1.6766,1.6789,1.6785,1.6868,1.6878,1.6811,1.6811,1.6812,0,1.6579,1.6603,1.6617,1.6631,1.6639,1.6661,1.6674,1.6672,1.6686,1.6703,1.672,1.6742,1.6758,1.6794,1.6798,1.6817,1.6813,1.684,1.6815,1.6814,1.681,1.6807,1.6809,1.6844,1.6845,1.6846,1.6846,0,1.6646,1.6646,1.6665,1.6685,1.6701,1.6717,1.6731,1.6742,1.6742,1.6758,1.678,1.6793,1.6819,1.6839,1.6858,1.6864,1.6854,1.6854,1.686,1.686,1.6857,1.6857,1.6778,1.6852,1.6851,1.6851,1.6851,1.685,1.6694,1.6713,1.6726,1.6747,1.6758,1.6771,1.6789,1.6794,1.6813,1.6834,1.6831,1.6856,1.6867,1.6891,1.6898,1.6917,1.6907,1.6916,1.6918,1.692,1.6921,1.6857,1.692,1.692,1.692,1.692,1.692,0,1.6758,1.6765,1.6785,1.6805,1.6822,1.6812,1.6827,1.6841,1.6863,1.6875,1.6892,1.6916,1.6936,1.6942,1.696,1.6974,1.6969,1.6978,1.6976,1.6977,1.693,1.6922,1.6981,1.6981,1.6981,1.6981,1.6981,1.6981,1.6793,1.6825,1.6826,1.6862,1.6869,1.6893,1.6902,1.6913,1.6922,1.6951,1.6967,1.6971,1.6979,1.6998,1.7015,1.7016,1.7022,1.7032,1.7031,1.6987,1.6981,1.6975,1.6967,1.7034,1.7034,1.7076,1.7076,1.7077]},{"header":{"parameterUnit":"m.s-1","parameterCategory":1,"la1":30.2991,"la2":30.254,"lo1":-89.0895,"lo2":-89.0444,"dy":0.0017,"dx":0.0017,"nx":28,"ny":28,"refTime":"2025-07-19T09:00:00:Z","depth":0,"parameterNumber":3,"parameterNumberName":"V-component_of_WINDS"},"data":[0,0,0,0,0,0,0,0,0,0,0,0,0,0,0,0,0,0,0,0,0,0,0,0,0,0,0,0,0,0,0,0,0,0,0,0,0,0,0,0,0,0,0,0,0,0,0,0,0,0,0,0,0,0,0,0,0,0,2.7002,2.7003,0,2.7126,2.7127,2.7129,2.7107,2.7105,2.7103,2.7101,2.7227,2.7232,2.7238,0,0,0,0,0,0,0,0,0,0,0,0,0,2.6745,2.6749,2.7002,2.7004,2.7005,2.7126,2.7128,2.7129,2.7108,2.7105,2.7103,2.71,2.7225,2.7232,2.7238,0,0,0,0,0,0,0,0,0,0,0,0,0,2.6861,2.6751,2.7002,2.7009,2.7011,2.7125,2.7128,2.713,2.7108,2.7105,2.7102,2.7099,2.7223,2.7231,2.7239,2.7354,0,0,2.7264,2.7267,0,0,0,0,0,0,0,0,2.6855,2.6871,2.7006,2.7009,2.7011,2.7098,2.7083,2.7205,2.7109,2.7071,2.7101,2.7097,2.7187,2.7198,2.7228,2.736,2.7365,2.7264,2.7269,2.7273,2.7275,0,0,0,0,0,0,0,2.6847,2.6865,2.7051,2.7008,2.7011,2.7005,2.7018,2.7106,2.7146,2.7074,2.7073,2.7088,2.7187,2.722,2.7231,2.7367,2.7264,2.7271,2.7276,2.728,2.7597,2.76,0,0,0,0,0,0,2.6837,2.6859,2.7047,2.7055,2.6923,2.7013,2.7027,2.7073,2.7145,2.7153,2.7091,2.7087,2.7208,2.7221,2.7235,2.7373,2.7273,2.728,2.7285,2.7593,2.7598,2.7602,0,0,0,0,0,0,2.6831,2.6854,2.7042,2.6956,2.698,2.7021,2.7073,2.7078,2.711,2.7157,2.7164,2.7117,2.7206,2.7224,2.7324,2.7377,2.7284,2.7291,2.7589,2.7595,2.76,2.765,0,0,0,0,0,0,2.6824,2.6852,2.6897,2.6958,2.6985,2.713,2.7076,2.7082,2.7124,2.712,2.7184,2.7191,2.7205,2.7312,2.7332,2.7386,2.7298,2.7585,2.7592,2.7598,2.7644,2.7657,2.7668,0,0,0,0,0,2.6815,2.6906,2.6899,2.6922,2.7042,2.7133,2.7148,2.7163,2.7129,2.7174,2.7203,2.7189,2.7368,2.7323,2.7345,2.7402,2.7581,2.759,2.7597,2.7639,2.7654,2.7667,0,0,0,0,0,0,2.6851,2.6914,2.6907,2.7021,2.7072,2.7129,2.7186,2.7179,2.724,2.7234,2.7248,2.7263,2.7364,2.7393,2.7342,2.7516,2.747,2.7483,2.7494,2.7509,2.752,2.7511,2.7304,0,0,0,0,0,2.6872,2.6941,2.6993,2.7089,2.7114,2.7146,2.7186,2.7193,2.7246,2.7267,2.7304,2.7356,2.7423,2.7467,2.7532,2.7648,2.7661,2.7698,2.771,2.7719,2.773,2.7792,2.7809,2.7628,2.7628,2.7628,0,0,2.6916,2.696,2.7003,2.7097,2.7137,2.7207,2.7164,2.7241,2.7294,2.7279,2.7375,2.7404,2.7462,2.757,2.762,2.7598,2.7783,2.773,2.7737,2.7743,2.7802,2.7819,2.7834,2.7634,2.7633,2.7632,0,0,2.7033,2.7074,2.7157,2.7198,2.7258,2.7279,2.7298,2.7357,2.7375,2.7473,2.7462,2.7524,2.7641,2.7682,2.7718,2.7849,2.7838,2.7869,2.7931,2.7991,2.8005,2.8017,2.8063,2.8079,2.788,2.788,2.788,0,2.7081,2.7188,2.7201,2.7279,2.7319,2.7309,2.7392,2.7431,2.751,2.7538,2.7512,2.7657,2.7695,2.7812,2.7843,2.7874,2.7896,2.7862,2.8002,2.8015,2.8027,2.807,2.8087,2.7884,2.7883,2.7883,2.7883,0,2.7242,2.7316,2.7376,2.7452,2.75,2.758,2.7604,2.7651,2.7652,2.7675,2.7773,2.7818,2.7892,2.792,2.7922,2.8036,2.8021,2.7998,2.7952,2.8047,2.8088,2.8105,2.7889,2.7887,2.7886,2.7886,0,0,2.7387,2.7468,2.7489,2.7523,2.7588,2.7645,2.7724,2.7795,2.7834,2.7889,2.7954,2.8052,2.8031,2.8073,2.808,2.8132,2.823,2.8103,2.8105,2.8124,2.8357,2.8373,2.8392,2.8223,2.8226,2.8229,2.8352,0,2.7509,2.7649,2.7662,2.7787,2.7855,2.7844,2.7913,2.796,2.7982,2.8042,2.8067,2.8136,2.8104,2.8128,2.8179,2.8208,2.8277,2.8199,2.8284,2.8287,2.8269,2.8414,2.8432,2.8545,2.8368,2.8371,2.8373,0,2.7672,2.773,2.7862,2.7916,2.7944,2.8006,2.8071,2.8129,2.8181,2.8194,2.8239,2.8238,2.8318,2.8268,2.8378,2.8324,2.8359,2.8378,2.8383,2.8391,2.8335,2.8425,2.8582,2.8599,2.8398,2.8396,2.8394,0,2.7762,2.7874,2.7966,2.7996,2.8061,2.8104,2.8134,2.8183,2.8224,2.8281,2.8308,2.8373,2.8409,2.8459,2.8475,2.8438,2.8584,2.8536,2.8596,2.8595,2.8627,2.8625,2.8791,2.8651,2.865,2.865,2.865,0,2.7897,2.7978,2.8008,2.8065,2.8154,2.8168,2.8256,2.8283,2.8326,2.8387,2.8382,2.8439,2.8458,2.8518,2.8532,2.8619,2.8636,2.8647,2.865,2.8648,2.8646,2.8671,2.8663,2.8654,2.8653,2.8653,2.8652,0,2.8014,2.8037,2.8138,2.8191,2.8206,2.827,2.8315,2.8369,2.839,2.8468,2.8486,2.8519,2.859,2.8611,2.8696,2.8705,2.8807,2.8803,2.879,2.879,2.8848,2.8842,2.9036,2.9061,2.8904,2.8906,2.8907,0,2.8099,2.816,2.822,2.8261,2.8292,2.8357,2.8399,2.8414,2.8458,2.852,2.8567,2.8636,2.8693,2.8806,2.8837,2.8901,2.8898,2.8961,2.8908,2.8903,2.8898,2.8894,2.8899,2.8971,2.8973,2.8974,2.8975,0,2.8246,2.8254,2.8315,2.8379,2.8429,2.8481,2.853,2.8563,2.8585,2.8634,2.8706,2.875,2.8836,2.8904,2.897,2.8999,2.8991,2.8992,2.9009,2.9007,2.8997,2.9002,2.8817,2.8987,2.8986,2.8985,2.8985,2.8984,2.8349,2.8402,2.8452,2.852,2.8558,2.8604,2.8657,2.8684,2.8744,2.8816,2.882,2.8898,2.8946,2.9033,2.9065,2.9125,2.9107,2.9132,2.9138,2.9144,2.9148,2.8987,2.9137,2.9137,2.9137,2.9136,2.9136,0,2.8495,2.8526,2.8588,2.8657,2.8709,2.8697,2.875,2.8795,2.8863,2.8909,2.8964,2.9046,2.9112,2.9147,2.9213,2.9254,2.9252,2.9271,2.9267,2.9274,2.9161,2.914,2.9271,2.9271,2.9271,2.9271,2.9271,2.9271,2.8577,2.8667,2.868,2.8788,2.8819,2.8894,2.8926,2.8967,2.9004,2.9095,2.915,2.9173,2.9214,2.9282,2.9342,2.9351,2.9375,2.9396,2.9402,2.9296,2.9282,2.9269,2.9249,2.9401,2.9401,2.9509,2.951,2.9511]}]]